User: anonymous   Login
Location: Unspecified
(0.0000°N, 0.0000°E)
Time: 09:18:44
(UTC+00:00)
Language:

YAOGAN 15 - Orbit

View from above orbital plane
View from above orbital plane
View from above satellite
View from above satellite

Ground track
Ground track

The orbit data is extracted from the following two-line orbital elements,

1 38354U 12029A   18018.78136636 -.00000037  00000-0  18714-4 0  9991
2 38354 100.4156 154.3806 0004745 339.6922  20.4003 13.15144843270881
Epoch (UTC): 18 January 2018 18:45:10
Eccentricity: 0.0004745
inclination: 100.4156°
perigee height: 1200 km
apogee height: 1207 km
right ascension of ascending node: 154.3806°
argument of perigee: 339.6922°
revolutions per day: 13.15144843
mean anomaly at epoch: 20.4003°
orbit number at epoch: 27088

The dashed part of the orbit path shows where the satellite is in the earth's shadow,  

DLR